Wind_Speed
33 33 33 32 32 32 32 31 31 30 29 28 27 27 26 25 24 24 24 24 25 25 25 25 25 25 25 26 26 25 24 24 24 24 24 24 24 23 23 23 22 22 22 23
34 34 33 33 33 33 33 32 31 31 30 28 27 27 26 26 26 26 26 25 25 26 26 26 26 25 25 25 25 25 25 25 25 25 25 25 25 24 25 24 24 24 24 25
34 34 34 35 34 33 33 32 31 31 30 29 28 28 27 26 27 27 27 27 27 27 27 27 27 27 26 27 27 26 26 27 26 27 27 27 26 26 26 26 25 26 26 26
34 34 35 34 34 34 33 33 33 33 32 31 31 29 28 27 28 28 28 27 27 28 28 28 28 28 28 28 28 28 28 29 29 28 28 28 28 28 28 28 28 27 28 28
35 35 35 34 34 33 33 33 33 33 33 32 31 30 30 29 29 29 29 28 29 29 29 28 28 29 29 29 29 29 29 30 30 31 30 30 30 30 30 30 30 30 30 30
36 36 35 34 35 33 33 34 33 33 32 31 31 30 29 29 29 29 29 29 29 30 30 29 29 29 30 30 30 31 31 32 31 32 32 32 32 32 31 30 31 32 32 32
36 36 36 36 35 34 34 33 33 32 32 32 31 30 30 29 29 29 30 30 30 30 31 30 30 31 31 31 31 32 32 32 32 33 33 33 32 32 32 32 32 32 32 32
37 37 37 38 36 35 34 33 32 32 32 32 31 31 30 30 30 30 30 30 31 31 32 32 32 32 32 32 32 32 32 32 32 33 34 34 33 32 32 33 33 32 33 34
37 37 37 38 37 36 35 34 33 32 32 32 31 31 31 31 31 31 31 32 31 31 32 32 32 32 32 32 33 32 32 32 33 33 34 33 33 33 33 33 32 33 33 33
36 37 37 37 36 35 35 33 32 32 32 31 31 31 32 31 32 32 32 32 31 31 31 32 32 32 31 31 31 31 32 32 32 32 33 32 32 32 32 32 32 32 32 33
36 36 35 35 35 34 34 33 32 32 32 32 31 31 31 31 31 31 32 32 32 31 31 31 31 31 31 31 31 30 30 30 30 31 31 32 32 32 32 31 31 31 32 33
32 32 33 33 33 33 33 33 32 32 33 32 32 31 31 31 31 31 31 31 31 31 31 31 31 31 31 31 29 29 30 29 28 29 30 30 31 31 31 30 30 31 31 31
30 30 30 31 31 32 31 31 31 31 31 31 30 30 30 30 31 31 31 32 32 31 30 29 29 29 28 28 27 27 28 27 27 27 28 29 29 29 29 30 30 30 31 31
28 28 28 28 28 29 29 29 30 29 28 28 28 28 28 29 29 30 30 30 29 29 28 28 28 28 27 27 27 26 26 26 26 27 27 28 28 29 29 30 31 30 30 31
26 26 26 26 26 27 27 28 27 27 26 26 26 26 26 27 27 28 28 28 28 28 28 27 27 27 26 26 26 26 26 26 27 27 27 27 28 29 29 30 30 30 29 29
22 22 22 23 23 24 24 25 25 24 25 26 26 25 26 26 26 26 26 26 27 27 27 27 26 25 24 24 24 25 25 25 26 27 27 28 28 28 29 29 29 29 29 29
19 19 20 20 21 21 21 22 22 22 23 24 24 24 25 25 26 26 26 26 26 25 25 26 25 24 23 23 24 24 25 25 24 24 25 26 27 27 28 29 30 29 29 30
17 16 17 18 19 19 19 19 19 21 22 22 23 23 23 23 23 23 23 23 23 23 23 23 23 23 22 22 22 23 23 23 24 24 25 25 26 27 27 28 28 28 29 29
13 13 14 15 17 17 18 18 18 19 20 21 21 21 22 21 21 20 21 21 21 22 22 22 22 22 22 22 22 23 23 23 24 24 25 25 25 26 26 26 26 27 27 28
13 13 13 13 14 14 15 17 18 18 19 19 19 20 20 20 20 20 20 20 20 21 22 22 21 21 21 21 21 22 22 23 24 24 24 24 24 25 25 25 25 26 26 27
12 12 13 13 13 14 14 16 16 17 18 17 17 18 18 19 19 19 19 19 19 20 20 19 19 19 20 20 20 21 22 22 22 22 22 22 23 24 24 24 24 24 25 25
10 11 12 13 13 14 15 16 16 17 17 17 17 17 18 18 18 19 19 19 19 19 19 19 19 19 18 19 19 20 20 21 21 21 21 21 21 22 23 23 24 24 24 24
11 11 11 12 12 13 14 15 15 15 15 16 17 17 17 17 18 18 18 18 19 18 18 18 18 18 18 18 19 19 20 20 20 20 20 21 21 22 23 24 24 25 25 26
11 11 11 11 11 12 12 13 13 13 13 14 14 14 15 16 16 16 17 17 17 17 17 18 17 18 18 18 19 19 20 19 19 20 20 21 22 23 24 24 25 26 27 28
10 10 11 11 11 11 11 12 12 11 11 11 12 13 13 14 14 14 14 14 15 15 17 17 17 17 18 18 19 19 19 19 20 21 21 22 23 24 25 25 26 26 27 28
8 8 9 9 9 9 10 10 10 10 10 10 11 12 12 12 13 13 13 14 14 15 16 17 17 17 17 17 18 18 18 19 20 21 22 22 23 23 24 25 26 27 28 29
8 8 8 8 8 8 8 8 8 9 9 9 10 11 11 11 12 12 13 14 14 14 15 15 16 16 16 16 17 17 18 19 20 20 21 22 23 24 25 25 26 27 27 27
Wind_Direction
239 240 244 248 248 249 250 251 253 257 258 257 259 258 258 257 257 258 258 260 261 262 266 269 269 268 268 271 272 274 276 278 280 279 278 278 279 279 278 279 280 281 278 275
242 243 244 247 248 250 251 253 254 256 258 257 258 259 258 256 256 257 259 261 263 263 265 267 267 268 268 269 271 272 273 274 277 279 279 279 280 281 279 277 278 279 277 275
244 245 245 246 247 249 252 253 254 256 258 259 260 260 259 257 255 257 258 261 263 264 265 266 268 267 268 269 269 270 271 272 274 276 277 277 278 279 278 277 278 278 277 275
244 246 247 249 250 251 252 253 254 255 256 258 261 260 258 257 256 257 259 260 261 263 265 267 269 269 270 269 269 269 269 271 274 277 276 276 278 278 278 275 275 275 274 274
244 247 249 250 251 251 253 254 254 256 257 258 259 259 258 258 258 258 259 260 261 263 264 265 266 267 268 269 270 270 269 270 273 275 276 276 276 277 277 277 275 273 273 273
244 245 247 251 252 252 254 255 254 255 255 256 256 256 258 257 257 257 258 260 262 264 265 265 267 268 267 269 270 270 269 269 271 273 275 277 276 277 277 277 276 275 274 274
245 246 247 249 251 251 252 254 256 255 254 254 254 254 255 254 255 256 257 259 261 264 267 268 268 269 269 269 270 269 269 269 270 272 273 275 277 276 276 277 276 275 275 276
245 246 247 249 251 251 252 254 256 255 253 252 252 253 252 252 253 255 257 259 262 264 266 267 268 268 269 269 268 268 267 267 268 270 272 273 275 277 277 278 276 276 277 277
246 247 249 250 251 252 253 253 253 253 251 250 252 252 252 252 253 255 257 259 261 263 265 266 267 267 267 269 268 268 268 267 267 269 270 272 274 276 278 278 277 277 277 278
246 247 249 251 252 252 252 252 251 250 250 250 251 252 253 253 254 256 257 258 260 262 264 265 266 266 267 268 269 269 269 268 268 269 270 271 273 275 276 275 276 278 278 279
247 249 250 251 251 251 250 250 249 249 249 252 252 253 254 253 254 256 258 259 260 261 262 263 264 267 267 268 269 268 268 269 269 269 270 271 272 274 275 274 276 278 279 280
249 249 250 250 249 248 248 248 247 247 249 251 252 253 253 252 253 255 257 258 259 261 262 264 265 266 269 268 268 267 267 268 270 271 271 271 272 274 274 274 276 278 280 281
251 250 249 248 247 246 246 246 245 246 249 250 251 251 252 252 252 253 255 257 259 261 262 264 264 266 267 269 269 269 267 268 269 269 271 272 273 275 275 274 276 277 278 280
250 249 247 245 243 243 243 243 243 245 247 247 248 250 253 252 252 253 255 256 259 262 262 264 266 266 268 269 268 269 270 270 271 272 274 274 274 275 276 276 277 277 277 279
247 246 245 243 242 240 240 241 243 243 244 244 245 249 251 251 251 253 254 255 257 259 261 264 266 267 268 268 268 270 272 272 272 273 273 274 275 276 277 278 278 278 278 278
243 243 242 242 239 239 239 241 243 243 242 242 245 248 250 250 251 252 254 256 258 260 261 261 265 268 268 270 270 271 274 274 274 275 276 277 277 278 278 279 280 280 280 281
241 238 237 237 235 236 240 239 238 238 239 242 246 249 248 248 251 253 256 257 259 261 263 263 265 268 268 270 271 272 274 275 275 276 278 278 278 279 279 280 281 282 282 283
233 233 232 232 231 232 233 235 236 237 239 243 246 247 249 251 252 255 258 260 261 261 265 267 268 267 267 268 270 271 273 274 275 277 280 281 281 281 283 282 282 283 285 287
226 226 227 229 230 233 235 234 236 239 241 242 245 247 250 251 252 255 258 260 262 264 266 267 269 269 268 269 271 272 274 275 276 278 281 281 283 284 284 284 284 285 287 289
223 226 230 231 234 237 238 237 238 238 241 242 246 249 249 250 254 255 258 262 264 266 267 268 270 268 267 269 272 273 275 277 279 282 283 283 284 284 284 285 287 289 290 291
219 224 228 233 236 239 241 242 242 243 245 245 250 252 252 253 255 258 261 263 265 268 269 268 269 268 268 270 273 274 276 279 282 283 284 285 285 285 286 287 289 292 293 294
221 227 231 234 237 240 244 247 249 248 246 247 253 255 255 254 258 260 261 261 263 266 269 270 270 271 273 275 276 278 280 282 284 285 286 287 287 288 288 290 292 294 295 294
230 236 241 242 243 246 250 254 257 254 250 253 257 257 254 255 258 261 260 261 263 265 268 270 271 273 274 276 278 280 282 283 285 287 287 288 288 289 289 291 292 293 294 295
238 244 249 249 249 252 255 259 261 259 257 257 257 260 260 257 259 260 261 263 264 265 267 269 272 274 277 278 279 280 282 283 285 287 288 289 289 290 292 293 293 293 294 295
237 245 254 258 260 262 264 266 268 266 261 261 263 265 264 261 263 265 265 267 268 268 270 272 273 275 278 279 281 284 284 284 286 289 290 291 291 292 293 294 294 295 295 295
238 248 257 263 269 270 267 267 266 263 264 265 267 266 266 264 263 263 267 269 271 273 275 276 277 278 280 283 284 286 288 290 292 294 294 294 295 295 296 297 297 296 296 296
243 252 262 264 265 266 264 263 261 261 263 266 268 267 267 268 267 268 272 274 276 278 279 280 280 282 283 285 286 289 292 295 296 297 297 297 298 297 297 297 298 298 298 297
Height
5826 5828 5830 5832 5835 5837 5839 5842 5845 5847 5848 5850 5851 5852 5853 5854 5855 5856 5857 5858 5858 5859 5859 5859 5858 5858 5858 5858 5857 5856 5855 5854 5854 5853 5853 5852 5851 5850 5849 5848 5848 5847 5846 5846
5816 5819 5821 5824 5826 5829 5831 5834 5836 5838 5839 5841 5842 5844 5845 5846 5847 5848 5849 5850 5851 5851 5851 5851 5851 5851 5851 5850 5850 5849 5849 5848 5847 5847 5846 5845 5844 5843 5842 5841 5841 5840 5840 5839
5807 5809 5811 5814 5818 5821 5823 5825 5827 5829 5832 5832 5834 5835 5837 5838 5839 5840 5841 5842 5843 5843 5843 5843 5843 5843 5843 5843 5843 5842 5841 5841 5840 5839 5839 5838 5838 5837 5836 5835 5834 5833 5833 5832
5797 5800 5802 5809 5810 5812 5814 5816 5818 5820 5822 5824 5825 5826 5828 5829 5830 5832 5833 5834 5834 5835 5835 5835 5835 5835 5835 5835 5834 5834 5833 5833 5832 5831 5831 5831 5830 5829 5828 5827 5827 5826 5825 5824
5788 5790 5794 5798 5800 5803 5805 5807 5809 5811 5813 5814 5816 5817 5819 5820 5822 5823 5824 5825 5825 5826 5826 5826 5827 5827 5827 5826 5826 5826 5825 5825 5824 5824 5823 5823 5822 5821 5820 5819 5818 5817 5816 5815
5778 5781 5785 5789 5790 5793 5796 5797 5799 5801 5803 5805 5807 5809 5811 5811 5813 5814 5815 5816 5816 5817 5817 5817 5818 5818 5818 5818 5817 5817 5817 5816 5816 5815 5814 5814 5813 5812 5811 5810 5809 5808 5807 5806
5768 5770 5775 5778 5780 5784 5787 5789 5790 5792 5794 5796 5798 5800 5801 5802 5804 5805 5806 5807 5808 5808 5808 5808 5809 5809 5809 5808 5808 5807 5807 5807 5807 5806 5805 5805 5804 5802 5801 5800 5799 5798 5797 5796
5758 5762 5767 5768 5771 5774 5777 5779 5780 5782 5784 5786 5788 5790 5792 5794 5795 5796 5797 5798 5799 5799 5799 5799 5799 5799 5799 5798 5798 5797 5797 5797 5797 5797 5796 5795 5794 5793 5792 5791 5789 5788 5788 5787
5749 5754 5755 5757 5760 5763 5766 5769 5770 5773 5775 5777 5779 5781 5783 5785 5786 5787 5788 5789 5789 5789 5789 5789 5789 5789 5789 5788 5788 5787 5787 5787 5787 5787 5786 5785 5784 5783 5782 5781 5780 5779 5778 5777
5738 5742 5744 5747 5749 5752 5755 5758 5761 5763 5765 5767 5769 5772 5774 5775 5777 5777 5778 5779 5780 5780 5780 5780 5779 5779 5779 5779 5778 5777 5777 5777 5776 5776 5776 5775 5774 5773 5773 5772 5771 5770 5769 5767
5728 5732 5734 5736 5739 5742 5744 5747 5750 5753 5755 5757 5760 5762 5764 5766 5767 5768 5769 5770 5770 5770 5770 5770 5770 5770 5770 5769 5768 5768 5768 5767 5766 5766 5766 5765 5765 5764 5763 5762 5761 5760 5759 5758
5719 5722 5724 5727 5728 5731 5734 5737 5740 5743 5746 5749 5750 5753 5755 5756 5758 5759 5760 5760 5761 5761 5761 5761 5761 5761 5760 5760 5759 5758 5758 5757 5756 5756 5756 5756 5755 5755 5754 5753 5752 5751 5750 5748
5709 5711 5714 5716 5719 5721 5724 5728 5731 5734 5737 5739 5741 5744 5745 5747 5749 5750 5751 5752 5752 5752 5753 5753 5753 5752 5752 5751 5750 5750 5749 5748 5748 5747 5747 5747 5746 5746 5745 5744 5743 5742 5741 5739
5700 5702 5704 5707 5710 5713 5716 5719 5722 5725 5728 5730 5733 5735 5737 5739 5740 5741 5742 5743 5743 5744 5744 5744 5744 5744 5743 5743 5743 5742 5742 5741 5740 5739 5739 5738 5738 5737 5736 5735 5734 5733 5731 5730
5692 5694 5696 5698 5701 5704 5707 5710 5714 5717 5719 5722 5724 5726 5728 5731 5732 5733 5734 5734 5735 5736 5736 5736 5736 5736 5735 5735 5734 5734 5733 5732 5732 5731 5730 5730 5729 5728 5728 5726 5725 5723 5722 5721
5685 5687 5689 5691 5694 5697 5700 5703 5706 5709 5711 5714 5717 5719 5721 5723 5724 5725 5726 5726 5727 5727 5728 5728 5728 5728 5726 5726 5726 5726 5725 5724 5723 5723 5722 5721 5720 5719 5719 5717 5716 5714 5713 5711
5680 5682 5684 5686 5689 5691 5694 5697 5699 5702 5704 5707 5709 5712 5713 5715 5716 5717 5718 5718 5719 5719 5720 5720 5719 5719 5719 5718 5718 5717 5717 5716 5715 5714 5714 5713 5712 5711 5710 5708 5707 5705 5704 5702
5676 5678 5679 5682 5684 5686 5689 5691 5693 5696 5699 5701 5703 5704 5706 5707 5709 5709 5710 5710 5711 5711 5712 5711 5711 5711 5710 5710 5710 5709 5709 5708 5707 5706 5706 5705 5703 5702 5701 5699 5698 5696 5695 5693
5672 5674 5676 5678 5680 5682 5684 5687 5689 5691 5692 5695 5696 5698 5699 5700 5701 5702 5702 5703 5704 5704 5704 5703 5703 5703 5703 5702 5702 5702 5701 5700 5699 5698 5697 5696 5695 5694 5692 5691 5689 5688 5686 5684
5669 5671 5673 5674 5676 5678 5680 5682 5683 5685 5687 5689 5690 5691 5692 5693 5694 5695 5696 5696 5696 5696 5696 5696 5695 5695 5695 5695 5695 5694 5693 5693 5692 5690 5689 5688 5687 5686 5684 5683 5681 5679 5677 5676
5666 5668 5670 5671 5673 5674 5675 5677 5678 5680 5681 5682 5684 5685 5686 5687 5688 5688 5689 5689 5690 5689 5689 5689 5688 5688 5688 5687 5687 5687 5686 5685 5684 5683 5681 5680 5679 5678 5676 5675 5673 5671 5669 5667
5664 5665 5667 5668 5669 5670 5671 5672 5673 5674 5676 5677 5678 5679 5680 5681 5681 5682 5682 5683 5683 5683 5682 5682 5682 5682 5681 5680 5680 5679 5678 5677 5676 5675 5674 5673 5671 5670 5668 5667 5665 5663 5661 5659
5661 5663 5664 5664 5665 5666 5667 5667 5668 5669 5670 5671 5672 5673 5674 5674 5675 5676 5676 5676 5676 5676 5676 5676 5676 5675 5675 5674 5674 5673 5672 5671 5669 5668 5667 5666 5664 5663 5661 5659 5658 5656 5654 5652
5659 5659 5660 5661 5661 5662 5663 5663 5664 5665 5665 5666 5666 5667 5668 5668 5669 5669 5670 5670 5670 5670 5670 5670 5670 5670 5669 5668 5667 5666 5665 5664 5663 5662 5660 5659 5657 5656 5654 5652 5650 5648 5645 5643
5655 5656 5656 5657 5657 5658 5659 5659 5659 5660 5660 5661 5661 5662 5663 5663 5664 5664 5664 5664 5664 5665 5665 5664 5664 5663 5663 5662 5661 5660 5659 5658 5656 5655 5653 5652 5650 5648 5646 5644 5642 5639 5636 5634
5652 5653 5653 5654 5654 5654 5655 5655 5656 5656 5657 5657 5658 5658 5658 5659 5659 5659 5660 5660 5660 5659 5659 5659 5658 5658 5657 5656 5655 5654 5653 5651 5650 5648 5646 5644 5642 5640 5638 5635 5633 5630 5628 5625
5649 5650 5650 5651 5651 5651 5651 5652 5652 5653 5653 5654 5654 5654 5654 5655 5655 5655 5656 5656 5655 5655 5654 5654 5653 5653 5652 5651 5649 5648 5647 5645 5643 5641 5639 5637 5635 5632 5630 5627 5624 5622 5619 5616